Skip Page Navigation
NASA JPL Caltech
NASA Logo - Jet Propulsion Laboratory + View the NASA Portal
+ Center for Near-Earth Object Studies
JPL Home Earth Solar System Stars & Galaxies Technology
JPL Solar System Dynamics
BODIES ORBITS EPHEMERIDES TOOLS PHYSICAL DATA DISCOVERY FAQ SITE MAP
JPL Small-Body Database Browser
Search: [ help ]  
79632 (1998 RC73)
Classification: Main-belt Asteroid          SPK-ID: 2079632
Ephemeris | Orbit Diagram | Orbital Elements | Mission Design | Physical Parameters | Discovery Circumstances | Close-Approach Data ]

[ show orbit diagram ]
Orbital Elements at Epoch 2459200.5 (2020-Dec-17.0) TDB
Reference: JPL 22 (heliocentric ecliptic J2000)
 Element Value Uncertainty (1-sigma)   Units 
e .1188090758657506 4.5887e-08  
a 2.392362980510425 1.0432e-08 au
q 2.108128545660549 1.1396e-07 au
i 7.137225198715705 5.3223e-06 deg
node 1.845635816702352 2.8346e-05 deg
peri 22.96057165977074 3.5069e-05 deg
M 348.8863506456768 2.0357e-05 deg
tp 2459242.224700370346
(2021-Jan-27.72470037)
7.6471e-05 TDB
period 1351.571536444183
3.70
8.8407e-06
2.42e-08
d
yr
n .266356600662896 1.7423e-09 deg/d
Q 2.676597415360301 1.1672e-08 au
  Orbit Determination Parameters
   # obs. used (total)      738  
   data-arc span      8194 days (22.43 yr)  
   first obs. used      1998-09-02  
   last obs. used      2021-02-07  
   planetary ephem.      DE441  
   SB-pert. ephem.      SB441-N16  
   condition code      0  
   norm. resid. RMS      .50702  
   source      ORB  
   producer      Otto Matic  
   solution date      2021-Apr-13 13:42:53  

Additional Information
 Earth MOID = 1.11178 au 
 Jupiter MOID = 2.79229 au 
 T_jup = 3.511 
[ show covariance matrix ]

Ephemeris | Orbit Diagram | Orbital Elements | Mission Design | Physical Parameters | Discovery Circumstances | Close-Approach Data ]

Physical Parameter Table
Parameter Symbol Value Units Sigma Reference Notes
absolute magnitude H 16.01   n/a E2021B10  

79632 (1998 RC73)          Discovered 1998-Sep-14 by LINEAR at Socorro
Reference: 20040504/Numbers.arcLast Updated: 2004-07-16

[ show close-approach data ]
Alternate Designations
 1998 RC73 = 2000 EG80 
Ephemeris | Orbit Diagram | Orbital Elements | Mission Design | Physical Parameters | Discovery Circumstances | Close-Approach Data ]
ABOUT SSD CREDITS/AWARDS PRIVACY/COPYRIGHT GLOSSARY LINKS
FirstGov 2021-May-17 18:40 UT
(server date/time)  
NASA Home Page
Site Manager:   Ryan S. Park
Webmaster  Alan B. Chamberlin